Wind_Speed
15 11 3 4 3 2 4 4 4 5 4 6 7 6 2 4 3 1 1 8 10 9 8 9 11 11 12 13 11 11 6 3 7 8 9 9 9 9 8 7 8 9 10 10 10 10 11 10 10
13 7 3 0 6 8 10 5 6 4 3 4 4 5 4 2 1 3 3 10 11 10 10 9 8 8 9 8 6 5 5 5 5 7 8 8 7 7 7 6 7 7 8 8 8 9 9 9 8
11 8 3 4 4 9 8 6 6 5 3 2 2 2 1 2 2 2 7 8 10 9 10 9 9 8 7 6 4 4 5 6 6 6 6 6 5 5 5 4 5 5 5 5 6 6 5 6 5
11 7 1 2 5 4 2 3 8 2 2 3 2 3 2 5 3 2 5 7 9 9 9 10 9 8 7 5 3 3 3 4 4 5 5 4 4 4 4 4 3 3 3 3 2 3 2 2 1
11 6 4 5 2 3 4 3 4 0 1 2 3 4 3 3 3 5 6 6 8 9 9 9 9 8 7 5 4 3 2 2 2 3 3 3 3 4 3 3 1 1 1 1 1 1 0 0 1
13 8 7 6 4 5 5 4 3 2 4 1 2 5 2 2 4 5 6 7 8 9 10 9 9 8 7 6 5 4 3 2 1 0 1 1 3 4 3 3 2 1 1 1 1 2 2 3 4
15 8 9 8 3 7 6 4 2 4 7 5 4 1 3 2 4 5 6 7 8 8 10 10 10 10 10 8 7 5 4 4 3 2 2 2 3 3 3 3 3 2 3 3 3 4 4 5 7
18 11 10 8 6 4 10 5 3 5 7 10 4 3 9 4 5 6 7 8 8 8 8 9 10 10 10 9 9 8 7 7 5 5 5 6 6 6 6 6 5 4 4 4 5 7 7 8 9
19 16 8 7 8 7 12 6 5 5 11 11 8 10 11 5 7 9 9 9 9 9 10 10 10 11 11 11 11 11 11 10 9 9 8 8 8 8 8 8 7 6 6 7 7 7 7 8 10
18 18 11 12 9 10 11 8 10 7 9 10 11 10 14 10 10 10 11 10 10 9 10 10 10 11 12 13 14 14 13 12 11 12 11 11 10 11 10 10 10 10 10 10 10 10 10 10 11
19 18 11 18 16 15 13 10 14 11 11 10 8 11 14 14 13 13 13 14 13 13 12 11 11 12 13 14 15 16 15 14 14 14 13 12 12 12 12 12 12 12 12 12 11 11 11 11 12
19 16 20 20 15 16 16 15 15 13 11 13 11 17 12 13 13 15 15 15 16 17 15 14 13 13 14 15 15 16 16 16 14 14 15 11 12 11 13 13 13 13 14 14 14 13 13 13 12
16 17 18 20 19 18 17 16 17 15 11 16 14 19 18 16 16 16 18 20 20 19 18 17 18 17 16 17 16 17 17 18 18 18 18 17 15 13 14 15 15 15 15 14 16 15 15 14 14
16 19 19 19 19 19 19 17 19 13 13 14 17 17 23 20 19 20 21 21 22 21 22 21 21 20 20 19 18 17 19 18 21 21 17 17 17 16 16 17 18 17 17 18 18 16 15 14 14
18 17 18 20 19 22 20 22 22 14 18 17 19 18 19 21 21 21 20 22 22 24 23 25 23 24 23 22 21 20 21 21 23 23 20 19 19 19 19 19 20 20 19 20 20 21 19 15 14
13 17 18 17 17 19 19 25 14 15 15 15 14 17 18 19 19 19 21 21 24 25 25 25 26 25 25 25 23 22 23 24 25 26 25 25 24 22 23 24 23 23 23 22 24 23 21 20 14
13 14 10 15 17 20 19 23 16 16 16 17 19 18 19 20 19 18 21 23 22 25 25 26 27 27 27 27 27 26 25 26 26 27 28 28 28 27 25 26 25 25 25 26 25 25 26 20 22
9 12 12 12 15 17 20 26 22 20 22 23 23 22 22 23 21 19 19 21 24 24 27 27 29 27 30 31 30 30 29 29 28 29 30 29 29 30 29 28 27 28 28 28 25 27 25 24 27
18 14 6 9 13 21 23 28 28 26 25 27 26 24 23 23 21 21 20 20 25 26 28 29 30 29 31 33 33 32 30 30 30 29 30 30 31 33 33 31 29 31 30 29 27 28 24 36 33
21 20 20 20 21 27 28 33 32 32 31 27 27 27 26 24 22 22 25 24 24 26 29 30 31 32 31 34 33 33 33 32 32 31 32 33 33 36 37 35 33 33 33 33 31 31 29 39 38
22 21 19 19 20 25 29 38 37 29 29 30 30 27 25 24 22 22 24 27 25 27 29 31 32 34 34 34 35 34 35 35 34 31 31 33 34 37 39 38 37 36 36 36 33 34 37 37 38
22 20 17 19 21 15 15 12 37 22 23 28 25 23 23 22 24 26 28 31 33 26 27 31 33 37 39 37 38 38 37 37 34 33 32 33 35 38 39 40 40 41 39 39 36 34 34 33 38
18 17 16 21 20 20 25 17 26 21 23 25 22 21 19 21 22 22 19 20 26 26 23 29 34 38 40 40 40 41 40 40 39 37 37 36 37 39 40 42 42 43 45 40 40 38 36 38 44
22 16 15 15 15 13 20 20 22 21 18 10 13 12 15 17 11 16 21 23 31 32 26 26 31 34 36 36 36 38 39 40 42 44 43 40 40 42 43 44 44 45 46 44 41 39 41 36 43
20 10 3 3 4 8 3 12 30 10 9 13 19 24 21 18 24 29 23 35 37 29 25 27 28 29 29 29 30 31 33 35 38 41 43 42 42 44 45 46 46 46 45 46 43 42 33 46 40
24 23 12 7 4 5 7 17 23 12 9 14 15 13 15 24 33 37 28 17 20 22 26 29 29 27 29 28 25 26 27 26 27 31 34 35 39 42 45 47 47 46 46 45 45 40 46 43 44
29 29 31 25 27 10 14 34 38 34 35 30 25 11 15 12 16 19 23 24 21 25 30 32 29 29 25 23 23 23 24 25 26 30 32 34 37 40 43 45 48 47 46 46 44 41 49 48 50
34 11 13 16 3 5 16 24 30 27 19 35 33 27 25 25 25 26 22 23 24 27 33 25 23 21 20 19 19 18 19 20 23 27 32 35 36 37 40 43 46 47 46 45 46 45 48 46 42
28 36 16 12 21 5 5 15 31 24 15 7 3 7 12 17 17 20 24 23 31 35 29 22 21 20 17 19 21 22 23 23 25 27 31 35 35 35 36 38 41 44 44 44 45 44 49 48 44
26 32 37 21 10 17 28 41 38 21 26 30 31 30 23 25 28 28 31 34 28 18 21 26 26 24 26 27 27 30 32 34 32 30 32 35 38 36 35 35 37 40 43 44 45 48 41 47 48
Wind_Direction
177 185 195 273 304 258 92 123 128 136 117 124 155 122 137 179 189 232 319 173 165 168 153 139 133 125 124 122 125 123 94 54 83 78 78 85 86 89 81 74 71 76 82 85 88 89 89 89 89
170 181 206 60 289 272 81 62 109 154 165 140 142 117 67 270 210 272 204 174 174 172 170 155 145 138 128 123 133 132 115 103 84 78 83 81 89 91 94 89 81 76 80 87 90 90 93 91 85
178 193 160 294 323 24 61 88 184 224 208 192 149 232 194 61 336 296 163 171 180 178 169 165 162 154 150 147 144 123 106 96 91 85 80 82 87 88 85 85 89 90 91 87 87 85 82 82 87
195 192 199 260 315 13 141 111 233 234 207 232 221 332 305 258 266 154 183 175 179 183 171 172 170 169 165 160 149 122 107 92 88 89 96 96 78 79 67 55 63 86 84 67 81 92 83 88 58
202 198 250 272 310 275 304 285 272 170 204 182 169 275 261 291 199 178 184 188 184 192 177 174 174 175 175 177 172 159 155 106 79 64 69 74 57 48 43 41 35 74 75 125 68 83 51 12 310
203 207 248 248 87 322 318 317 284 206 253 212 202 248 306 239 205 191 190 197 190 193 189 186 185 189 193 195 194 193 192 194 182 176 73 49 23 16 8 0 327 306 271 294 303 310 288 291 297
210 212 258 326 320 329 292 333 278 225 253 271 260 195 309 270 232 211 204 215 198 203 195 197 198 199 202 203 211 219 225 230 239 238 229 277 307 318 317 323 316 281 281 287 299 293 297 299 297
208 216 248 267 270 310 287 304 292 255 231 259 253 208 261 254 236 230 221 219 226 213 207 208 211 214 222 228 231 230 234 240 246 256 268 286 297 306 308 313 317 303 294 303 303 296 294 291 294
218 219 229 258 260 269 283 299 268 287 269 269 252 251 273 254 253 239 233 232 234 217 215 215 217 225 230 236 241 248 254 257 263 263 264 273 280 285 289 290 288 283 282 292 295 296 297 298 294
216 226 218 257 232 223 271 303 290 262 266 270 259 252 260 259 256 248 241 240 240 235 231 228 229 231 234 238 243 249 256 262 266 268 266 269 276 280 285 288 286 285 282 282 284 289 294 293 290
221 223 228 251 244 259 273 283 269 280 271 275 265 241 254 258 255 251 244 243 238 237 236 236 237 242 246 250 249 253 256 261 260 262 259 261 263 273 281 285 284 286 283 278 280 285 287 288 288
225 235 231 244 252 268 268 269 273 269 272 266 266 263 260 262 264 258 250 249 243 245 249 249 248 251 255 259 257 259 259 260 260 259 269 269 270 275 283 287 287 283 279 274 273 276 279 283 284
234 237 244 254 263 267 268 267 268 267 262 264 259 262 269 262 264 262 258 252 251 250 251 252 255 256 260 262 264 265 263 265 265 261 265 274 273 277 286 291 288 282 278 268 270 276 279 280 281
236 240 254 261 263 266 269 267 263 272 270 267 267 256 268 266 265 260 258 260 260 258 258 256 254 257 257 261 264 264 264 261 262 265 262 267 273 274 279 286 287 287 282 274 273 270 266 272 275
252 258 260 262 267 267 270 267 269 277 272 268 268 268 261 268 265 267 268 265 263 262 257 258 257 257 257 260 261 262 263 260 259 259 252 258 267 275 277 286 288 288 285 278 276 276 275 271 281
263 259 258 273 271 270 268 267 269 269 277 272 267 269 269 267 267 266 268 265 262 263 264 261 261 258 256 258 259 260 260 259 257 257 259 260 265 267 271 277 280 284 286 279 272 272 272 262 276
263 257 273 259 267 275 271 268 272 268 270 268 270 272 275 277 272 275 271 270 266 266 265 263 262 261 260 259 259 260 258 259 257 257 258 262 266 268 271 271 279 284 284 279 276 275 271 271 271
238 255 265 248 266 267 277 270 270 270 270 264 265 272 276 278 284 284 273 270 267 262 266 265 265 261 260 261 259 262 264 262 262 258 260 261 264 268 273 274 279 281 284 282 272 274 271 273 259
258 249 243 240 279 284 280 278 276 275 263 267 273 277 274 274 283 282 276 268 266 268 265 269 270 269 262 264 267 268 269 268 266 264 262 263 264 265 268 273 275 277 282 280 272 267 269 264 279
247 254 252 265 273 281 285 282 276 275 273 269 270 268 276 279 280 277 277 273 270 270 270 268 270 272 269 268 268 268 269 267 266 265 264 261 260 262 267 270 272 273 276 281 275 266 265 262 271
244 254 265 265 279 281 294 291 282 286 277 268 266 271 273 279 279 278 278 277 271 268 269 270 271 272 270 268 267 265 264 264 267 270 269 269 267 265 268 270 270 272 273 276 277 275 264 257 266
255 256 263 272 275 283 282 291 279 266 268 281 277 270 278 273 270 268 269 277 283 278 272 268 268 268 269 267 267 267 268 265 266 268 266 264 264 264 266 267 267 268 270 270 273 272 268 247 263
253 256 249 259 273 283 275 269 284 293 287 284 286 289 282 269 265 265 269 276 288 288 280 272 272 272 275 273 271 269 268 268 267 266 266 267 266 268 268 269 269 268 267 269 270 268 270 246 266
244 244 250 261 279 268 256 243 288 281 285 285 295 292 284 253 236 286 272 277 295 289 283 274 273 274 275 276 275 275 275 273 271 271 269 268 268 268 269 270 270 269 268 268 270 268 267 255 264
233 224 216 266 192 240 170 250 247 234 245 273 273 286 281 250 267 288 273 286 283 280 277 278 278 277 274 275 274 275 272 270 269 271 273 271 269 269 269 269 269 270 269 267 265 266 261 266 251
242 225 203 203 198 266 259 245 265 292 261 254 273 280 274 268 267 275 280 281 286 283 285 290 292 282 277 278 273 272 275 276 272 271 273 273 271 270 268 267 266 266 265 263 264 265 246 261 251
227 226 243 252 265 293 257 262 269 267 271 274 277 299 305 282 284 283 276 287 281 291 291 289 286 280 275 269 270 272 274 277 279 279 279 278 273 271 270 268 266 265 263 263 262 261 257 252 263
218 238 219 206 186 227 261 266 259 275 273 287 287 281 287 279 274 273 274 282 289 301 294 283 268 256 255 257 260 267 279 287 291 293 291 287 283 278 273 269 267 266 264 261 258 254 257 259 266
221 225 214 216 222 183 255 260 275 270 268 262 280 306 291 298 299 276 273 278 291 291 281 253 237 231 237 252 266 276 288 296 299 301 299 297 292 287 280 274 269 267 263 259 258 258 254 259 255
230 240 229 219 220 235 248 261 250 251 276 282 286 286 285 282 288 283 276 285 281 264 239 235 238 247 259 274 283 284 285 289 295 300 305 302 297 294 287 280 273 269 265 261 261 257 246 261 271
Height
3167 3169 3171 3173 3175 3170 3171 3173 3174 3174 3176 3177 3177 3177 3178 3178 3179 3183 3180 3181 3182 3183 3184 3185 3185 3186 3187 3188 3190 3192 3192 3191 3191 3192 3192 3192 3193 3192 3193 3193 3192 3193 3193 3193 3194 3193 3193 3194 3193
3168 3170 3172 3172 3173 3171 3173 3172 3174 3175 3175 3177 3178 3178 3179 3178 3179 3179 3180 3181 3183 3184 3185 3186 3186 3188 3188 3189 3191 3192 3193 3193 3192 3192 3192 3193 3194 3194 3194 3193 3194 3194 3194 3195 3195 3194 3194 3194 3194
3168 3171 3173 3173 3172 3171 3174 3174 3173 3174 3175 3176 3177 3178 3178 3178 3178 3178 3179 3181 3183 3185 3186 3187 3188 3189 3190 3191 3192 3192 3193 3194 3194 3194 3194 3195 3195 3195 3195 3195 3195 3195 3196 3196 3196 3196 3196 3196 3195
3170 3172 3174 3173 3173 3172 3174 3174 3172 3174 3175 3176 3177 3178 3179 3178 3178 3179 3179 3181 3183 3184 3186 3187 3189 3189 3190 3191 3192 3192 3193 3194 3195 3195 3195 3196 3196 3195 3195 3195 3196 3196 3196 3197 3197 3197 3197 3197 3196
3169 3172 3172 3173 3173 3173 3173 3173 3173 3173 3174 3175 3177 3178 3178 3178 3179 3180 3181 3181 3183 3184 3186 3187 3188 3189 3190 3191 3192 3193 3194 3195 3195 3195 3196 3196 3196 3196 3196 3196 3196 3197 3197 3198 3198 3198 3198 3197 3197
3168 3172 3171 3171 3173 3172 3171 3173 3173 3174 3174 3175 3177 3177 3178 3179 3179 3180 3181 3182 3184 3184 3186 3187 3188 3189 3190 3191 3192 3193 3194 3195 3196 3196 3196 3196 3196 3196 3196 3197 3197 3197 3198 3198 3198 3198 3198 3197 3197
3168 3171 3169 3171 3173 3173 3172 3173 3173 3175 3174 3175 3177 3177 3178 3179 3179 3180 3181 3181 3183 3184 3185 3187 3188 3189 3190 3191 3192 3193 3194 3195 3195 3195 3196 3196 3197 3197 3197 3197 3197 3197 3197 3198 3198 3198 3198 3198 3198
3167 3170 3170 3171 3172 3173 3172 3172 3173 3174 3175 3175 3177 3177 3176 3178 3179 3180 3181 3181 3182 3183 3184 3186 3187 3189 3190 3191 3192 3193 3194 3194 3195 3195 3196 3196 3196 3196 3196 3196 3197 3197 3197 3197 3197 3197 3197 3197 3197
3166 3168 3169 3171 3172 3173 3172 3171 3172 3173 3174 3175 3176 3176 3176 3178 3178 3179 3180 3181 3181 3182 3183 3184 3186 3187 3189 3190 3191 3192 3192 3193 3194 3194 3195 3195 3196 3196 3196 3196 3196 3196 3196 3197 3197 3197 3196 3196 3196
3164 3165 3168 3169 3169 3170 3170 3171 3170 3173 3173 3173 3174 3175 3175 3177 3177 3178 3179 3180 3181 3182 3183 3184 3185 3186 3187 3188 3189 3190 3191 3192 3192 3192 3193 3194 3195 3195 3195 3195 3195 3195 3195 3196 3196 3195 3195 3195 3195
3162 3163 3165 3165 3167 3169 3169 3170 3169 3171 3171 3172 3172 3172 3173 3175 3176 3177 3178 3179 3180 3181 3181 3182 3184 3185 3186 3187 3188 3188 3188 3189 3190 3191 3191 3192 3193 3193 3193 3193 3193 3193 3194 3194 3194 3194 3194 3193 3193
3160 3162 3161 3163 3165 3167 3166 3167 3167 3169 3170 3170 3171 3168 3171 3173 3174 3175 3176 3177 3178 3179 3179 3180 3182 3183 3184 3185 3186 3186 3186 3187 3187 3189 3188 3190 3190 3191 3191 3191 3191 3191 3191 3191 3191 3192 3192 3191 3190
3157 3159 3159 3160 3162 3163 3164 3165 3164 3165 3168 3167 3169 3168 3169 3171 3172 3173 3173 3174 3174 3176 3177 3178 3179 3180 3181 3181 3183 3183 3184 3185 3185 3186 3186 3187 3187 3189 3189 3189 3189 3189 3189 3189 3189 3189 3189 3189 3188
3154 3156 3157 3158 3159 3160 3161 3162 3161 3163 3165 3165 3165 3167 3165 3168 3169 3169 3170 3171 3172 3173 3174 3175 3176 3177 3177 3179 3180 3181 3181 3182 3182 3182 3183 3184 3184 3185 3186 3187 3186 3186 3187 3186 3186 3186 3186 3186 3186
3153 3155 3154 3156 3156 3156 3158 3158 3158 3161 3160 3161 3162 3163 3164 3163 3164 3165 3167 3168 3168 3169 3171 3170 3173 3173 3174 3175 3176 3177 3178 3179 3179 3180 3180 3181 3182 3182 3183 3183 3183 3183 3183 3183 3183 3182 3182 3183 3183
3152 3152 3152 3153 3153 3153 3155 3153 3156 3157 3156 3157 3158 3158 3159 3160 3161 3162 3162 3164 3165 3165 3166 3168 3168 3170 3171 3172 3173 3174 3175 3176 3177 3177 3177 3177 3178 3179 3180 3180 3180 3180 3179 3179 3180 3179 3179 3179 3180
3149 3150 3150 3151 3152 3151 3152 3150 3152 3154 3154 3154 3154 3155 3155 3155 3156 3158 3158 3159 3160 3161 3162 3162 3164 3165 3167 3168 3169 3170 3171 3172 3173 3173 3173 3173 3173 3174 3176 3176 3176 3176 3175 3175 3175 3175 3175 3175 3176
3147 3147 3148 3149 3149 3148 3147 3145 3149 3151 3149 3149 3150 3151 3152 3151 3153 3153 3154 3155 3155 3156 3156 3157 3158 3160 3161 3162 3164 3164 3166 3167 3168 3169 3169 3170 3169 3169 3170 3170 3171 3171 3170 3170 3171 3170 3171 3171 3171
3146 3144 3145 3148 3146 3145 3144 3141 3142 3145 3145 3144 3145 3146 3147 3148 3149 3149 3149 3150 3150 3150 3151 3152 3153 3155 3156 3156 3158 3159 3161 3162 3163 3164 3165 3165 3165 3164 3164 3165 3166 3165 3165 3166 3165 3165 3166 3165 3166
3143 3143 3143 3145 3142 3141 3140 3135 3136 3138 3139 3140 3140 3141 3142 3143 3144 3144 3143 3144 3145 3146 3145 3146 3146 3147 3150 3150 3152 3153 3154 3155 3156 3158 3158 3159 3160 3158 3157 3159 3160 3160 3160 3159 3159 3159 3159 3160 3161
3139 3140 3141 3142 3141 3137 3136 3128 3129 3132 3132 3133 3134 3136 3137 3138 3138 3138 3136 3137 3139 3139 3140 3140 3141 3141 3142 3144 3144 3146 3146 3147 3149 3152 3153 3153 3154 3153 3151 3152 3153 3153 3153 3153 3153 3152 3153 3154 3153
3135 3137 3137 3139 3138 3136 3134 3124 3122 3127 3127 3127 3129 3131 3133 3133 3133 3133 3132 3130 3131 3135 3134 3134 3134 3133 3133 3136 3137 3138 3139 3140 3143 3144 3145 3146 3145 3145 3145 3144 3144 3145 3145 3145 3146 3145 3145 3145 3146
3129 3132 3135 3135 3135 3132 3131 3130 3112 3120 3119 3122 3125 3127 3126 3126 3126 3127 3127 3127 3126 3127 3128 3128 3127 3127 3127 3128 3129 3130 3131 3133 3134 3136 3136 3138 3138 3137 3137 3137 3137 3136 3136 3137 3138 3137 3136 3139 3139
3124 3130 3132 3132 3133 3127 3126 3127 3108 3114 3115 3118 3120 3121 3121 3121 3121 3122 3122 3122 3121 3120 3121 3121 3120 3120 3120 3120 3121 3121 3123 3125 3125 3127 3128 3130 3130 3129 3128 3128 3127 3127 3126 3127 3129 3128 3129 3130 3132
3121 3127 3130 3132 3131 3121 3121 3121 3103 3110 3114 3116 3117 3119 3119 3119 3117 3116 3116 3116 3114 3114 3114 3114 3113 3113 3113 3113 3113 3113 3113 3114 3115 3116 3118 3120 3120 3119 3119 3119 3118 3118 3118 3119 3120 3119 3118 3120 3120
3117 3120 3122 3126 3125 3115 3116 3105 3098 3103 3108 3111 3112 3114 3115 3114 3111 3111 3108 3109 3109 3108 3108 3107 3107 3106 3106 3106 3106 3106 3106 3106 3107 3106 3107 3110 3110 3109 3108 3108 3107 3107 3108 3108 3108 3108 3112 3110 3111
3109 3111 3115 3117 3116 3115 3106 3098 3097 3098 3102 3106 3108 3108 3107 3107 3106 3105 3104 3102 3102 3101 3101 3101 3101 3100 3099 3100 3100 3101 3100 3100 3100 3100 3099 3100 3100 3098 3098 3097 3096 3096 3097 3097 3098 3098 3101 3103 3103
3102 3107 3110 3111 3116 3117 3096 3097 3092 3095 3099 3103 3102 3102 3102 3099 3098 3099 3097 3096 3095 3095 3094 3094 3094 3094 3093 3094 3094 3095 3095 3094 3094 3093 3092 3091 3090 3089 3087 3086 3085 3086 3086 3087 3088 3089 3091 3090 3091
3098 3099 3101 3103 3103 3101 3101 3089 3088 3093 3095 3095 3096 3096 3096 3095 3094 3094 3092 3092 3091 3088 3088 3087 3087 3088 3088 3088 3088 3089 3089 3088 3088 3087 3085 3083 3081 3079 3077 3076 3075 3075 3076 3076 3077 3077 3081 3081 3083
3091 3091 3095 3095 3093 3096 3097 3079 3086 3089 3090 3090 3093 3092 3093 3092 3092 3090 3088 3086 3085 3084 3084 3083 3082 3083 3082 3081 3081 3081 3081 3081 3080 3079 3077 3075 3073 3072 3068 3066 3065 3064 3065 3066 3065 3069 3070 3070 3071